RH
69 73 69 62 47 65 78 72 76 55 31 38 42 55 47 45 48 50 61 48 33 28 27 29 31 31 31 31 30 32 32 29 29
66 67 75 65 61 46 78 79 75 64 31 30 41 49 49 45 45 44 42 43 44 33 30 31 32 34 34 34 36 37 33 30 29
65 69 65 75 71 60 42 72 81 77 59 29 40 39 44 40 38 41 44 40 43 34 31 32 34 35 35 35 38 39 35 32 32
64 66 65 64 72 76 57 46 77 80 74 46 30 40 40 37 36 41 45 48 47 40 33 33 33 34 35 37 40 41 37 35 35
72 66 63 61 67 72 78 67 68 87 87 80 39 32 39 36 36 40 43 47 47 49 37 35 33 34 35 36 39 42 39 40 42
71 71 70 66 62 63 70 76 78 81 90 91 82 39 34 34 34 36 45 49 48 48 47 37 34 34 36 37 39 42 43 42 46
87 69 68 69 68 65 61 67 74 81 82 82 90 79 37 35 37 36 42 48 52 50 45 43 35 33 34 36 37 39 43 46 47
86 90 83 74 72 70 65 68 65 70 77 77 80 84 73 39 38 41 39 47 50 49 51 49 38 35 34 36 40 43 43 48 49
81 83 89 91 86 81 69 77 81 75 73 76 79 86 88 72 40 42 42 44 50 53 56 55 52 39 38 37 38 41 45 45 49
84 89 82 84 87 86 82 79 79 84 81 75 75 80 88 86 77 42 45 45 49 61 74 68 59 49 40 40 40 40 43 48 45
43 76 97 89 83 85 83 86 85 83 85 86 78 79 84 88 85 73 48 50 52 64 69 70 73 62 46 41 41 42 42 44 48
28 29 46 75 92 92 91 90 92 89 90 89 85 83 85 89 92 91 75 57 57 67 74 72 74 72 62 49 40 41 45 45 46
35 34 30 41 71 95 91 92 99 98 94 88 84 84 81 87 91 88 96 74 76 68 79 80 76 73 69 64 59 77 66 53 51
41 37 38 49 65 72 96 93 99 96 92 89 87 87 82 78 83 86 92 91 88 83 86 86 82 78 72 72 69 65 64 75 69
39 37 47 53 78 76 72 94 91 89 91 91 90 89 86 85 86 90 94 77 89 93 90 92 92 87 86 78 72 65 64 59 53
42 37 34 35 40 60 69 79 92 97 93 93 94 88 88 93 90 85 80 68 88 88 98 96 91 85 84 86 78 66 62 62 62
52 57 59 51 46 29 43 81 95 87 94 94 98 99 95 87 77 76 75 75 90 88 88 99 97 96 86 84 77 73 67 62 63
69 70 90 87 76 61 32 65 96 99 95 91 97 95 83 70 66 67 70 80 88 90 72 75 90 93 99 96 88 75 69 75 68
74 83 90 99 100 94 83 63 83 93 98 98 93 97 89 86 88 82 79 78 76 72 73 79 92 96 93 93 93 90 89 88 75
98 97 91 98 100 100 100 96 82 67 97 94 100 94 86 98 95 95 87 86 82 81 82 85 89 89 94 95 89 86 84 82 76
Wind_Speed
9 9 8 9 10 10 11 10 11 8 7 9 11 12 10 8 6 5 7 4 3 3 3 2 1 1 1 1 1 1 1 2 3
12 11 11 11 11 12 12 13 13 10 9 10 12 14 13 11 9 7 6 6 5 5 5 4 3 3 2 2 2 1 1 2 3
14 13 13 13 12 13 15 15 16 13 11 11 13 15 16 14 12 10 9 7 7 7 7 6 5 4 4 3 3 2 1 2 3
17 17 16 15 15 15 16 18 17 18 15 13 15 17 18 17 15 13 11 9 8 9 8 8 7 6 5 5 4 3 3 3 3
20 20 20 18 18 18 18 19 19 19 20 16 16 18 20 20 19 17 14 13 11 10 10 9 9 8 7 6 6 5 5 4 4
22 22 21 21 21 20 21 21 22 21 21 22 19 20 22 22 21 20 17 15 13 12 11 11 11 10 9 8 8 7 6 6 6
23 25 25 23 23 23 24 25 25 25 26 25 27 24 24 24 23 22 20 18 16 15 13 13 13 12 12 11 9 9 9 8 9
25 26 26 27 26 27 27 27 28 29 29 28 29 29 25 27 26 25 24 22 19 18 16 14 15 15 14 13 12 11 11 11 11
27 28 27 28 26 26 28 29 29 28 28 29 30 31 30 27 27 28 27 26 23 20 19 17 17 17 17 15 14 14 13 13 13
32 33 31 31 31 29 29 31 31 30 30 30 30 32 33 30 28 29 28 29 27 25 22 20 19 19 19 19 17 16 16 15 15
31 34 37 36 36 35 35 36 35 34 34 33 33 34 34 34 32 31 31 31 31 29 27 24 22 20 21 21 20 19 18 18 17
31 34 35 35 36 37 40 39 38 37 35 36 34 34 35 35 37 33 31 30 34 33 31 28 26 23 22 22 23 22 21 20 19
33 34 36 36 34 33 35 37 39 37 37 37 35 34 35 36 36 35 31 32 30 36 32 31 29 27 25 23 23 24 22 20 21
29 32 34 32 35 35 33 36 38 39 38 36 36 36 35 34 36 34 33 36 37 36 35 33 30 29 28 26 25 24 24 24 23
25 30 33 33 33 36 35 34 36 39 39 36 38 37 35 34 36 35 34 22 40 39 41 38 35 35 32 30 29 27 27 27 27
25 28 32 32 36 35 33 32 32 34 35 36 37 37 36 34 31 28 29 28 26 38 34 40 39 35 31 34 34 30 28 27 28
25 27 31 31 30 33 34 28 29 33 34 35 33 22 29 32 31 30 27 21 22 28 31 30 34 37 32 33 33 36 34 31 31
26 28 29 27 25 29 31 28 26 26 32 34 30 11 14 18 22 27 29 27 25 24 20 25 27 31 34 38 38 40 40 40 36
26 25 27 19 18 21 22 25 24 21 28 33 37 31 14 10 7 12 17 21 24 21 21 22 28 23 22 23 24 27 30 30 34
17 18 19 15 9 14 15 17 21 28 25 31 28 32 37 36 23 18 20 20 18 23 23 22 22 19 21 22 23 23 23 27 29
Wind_Direction
279 277 281 263 256 255 240 237 233 254 247 216 212 211 216 219 216 215 214 245 250 263 260 258 266 262 217 195 181 203 226 181 184
278 277 273 270 263 255 247 240 239 248 244 222 218 220 227 236 238 240 243 248 257 250 241 250 255 248 236 225 217 223 208 184 183
277 275 272 268 262 259 252 251 249 246 247 234 224 226 233 241 247 251 253 243 257 250 246 244 247 247 247 246 250 251 221 197 186
276 274 272 269 263 260 257 255 254 249 248 242 233 230 233 239 245 250 249 249 251 253 247 252 253 250 242 239 237 232 226 215 202
275 274 273 269 265 261 257 254 257 254 248 251 243 237 236 238 240 247 248 249 248 257 247 250 254 252 248 244 245 239 229 216 213
276 273 272 270 266 262 260 256 255 256 253 249 248 242 240 241 240 245 247 248 247 249 250 251 252 251 250 246 242 240 235 228 221
283 277 272 269 265 261 257 255 254 252 249 249 246 243 241 242 244 243 245 246 246 247 250 252 251 252 251 250 248 244 236 233 228
275 278 278 274 269 265 258 253 251 250 252 250 248 245 243 244 244 244 244 245 247 245 249 252 251 251 252 250 246 242 240 236 234
263 270 274 274 271 273 260 256 255 255 257 257 252 250 246 246 246 243 242 242 244 244 247 252 255 252 252 251 249 247 245 242 240
265 263 264 268 266 264 267 260 258 254 254 254 256 252 249 245 246 244 241 242 243 244 244 253 256 254 252 252 250 248 246 245 245
268 267 264 263 263 263 261 262 263 260 258 257 256 254 249 249 246 243 241 241 243 245 245 246 255 258 253 251 251 249 249 248 247
278 271 270 269 264 264 263 259 257 261 260 259 257 256 251 249 251 248 240 240 242 243 243 244 247 255 261 258 252 248 247 248 249
281 279 275 274 272 268 266 264 256 262 264 260 259 257 255 252 252 254 249 240 244 240 242 243 246 252 257 260 260 250 252 250 252
287 282 277 278 272 271 266 261 263 263 265 262 259 260 257 255 255 256 252 245 241 241 237 241 246 251 254 257 258 261 257 256 255
295 290 283 278 280 273 270 267 264 265 264 263 262 263 262 258 255 256 251 283 248 242 239 235 237 241 248 254 262 262 262 260 260
305 297 292 285 278 278 275 272 266 266 267 266 263 260 258 254 256 255 250 264 263 248 246 245 241 238 240 250 261 260 260 262 261
312 310 300 290 284 277 277 270 270 265 267 262 256 251 246 246 248 248 247 250 244 237 246 254 252 253 251 257 262 261 257 263 262
319 317 311 293 285 281 269 272 272 275 273 264 246 224 233 242 243 244 245 244 241 245 251 251 249 254 255 256 255 254 262 262 258
316 317 312 300 285 278 275 268 268 273 271 262 253 232 245 216 214 224 232 237 244 251 250 256 257 257 260 262 263 268 265 262 260
326 318 333 328 311 266 260 276 262 265 268 264 250 245 248 240 244 248 249 254 247 246 247 253 252 255 268 274 271 267 272 276 268